sat.trackr.live / text

‹ back to catalog

STARLINK-31675

NORAD 59548 · 2024-074Q

PAYLOAD ACTIVE UNKNOWN

§ Identity

Operator
Country
US
Launch date
2024-04-18
Launch site
AFETR
Launch vehicle
Mass (kg)
RCS (m²)

Purposes: comms

External: N2YO · Heavens-Above · Gunter

§ Orbital elements

Epoch: 2026-05-25T01:04:09.075936Z

Period
94.27 min
Inclination
42.9990°
Eccentricity
0.0000862
Mean motion
15.27573086 rev/d
Perigee alt
482.5 km
Apogee alt
483.7 km
Semi-major
6,861.2 km
B*
2.0916e-4
RAAN
272.1544°
Arg perigee
299.5591°
Mean anomaly
60.5174°
Rev number
11,769

§ Raw data

STARLINK-316751 59548U 24074Q   26145.04454949  .00005497  00000+0  20916-3 0  99902 59548  42.9990 272.1544 0000862 299.5591  60.5174 15.27573086117698

JSON: /api/v1/satellites/59548 · /tle

For live sub-satellite position, see the globe view (requires WebGL).

§ Visibility from observer

Set your observer location to see the next 7 days of passes ≥ 10°. The values pass through the URL so the page stays shareable.

No JS? Fill the form by hand. The geolocation button needs JavaScript.